Location: Camps Bay
(33.9517°S, 18.3844°E)
Time: 09:14:45
(UTC+00:00)

SL-08 R/B - Pass Details

Date: 18 January 2020
Orbit: 673 x 740 km, 98.4° (Epoch: 16 February)

Event Time Altitude Azimuth Distance (km) Brightness Sun altitude
Rises 02:17:28 0° 170° (S) 3,205 7.6 -17.4°
Reaches altitude 10° 02:19:46 10° 171° (S) 2,277 6.7 -17.1°
Maximum altitude 02:24:47 76° 256° (WSW) 774 3.4 -16.3°
Enters shadow 02:28:07 21° 338° (NNW) 1,618 4.7 -15.7°
